Weather in Makassar

Indonesia     5°10′04″S   119°27′08″E
temp.,
°C
wind,
m/s
gust,
m/s
humid.,
%
clouds,
%
prec.,
mm/h
press.,
hPa
HPBL,
m
28 february, sun
sun2823:00+24ene3489100 1.4 100987
02:00+24ene3488100 1.6 100883
05:00+24ne3489100 0.6 100780
08:00+25n3588100 3.8 1010357
11:00+26nnw4689100 7.6 1010524
14:00+24nnw4696100 15.0 1008374
17:00+25nne3492100 3.9 1007355
20:00+24ne3594100 8.9 1010170
1 march, mon
mon123:00+23ne3495100 0.0 1010117
02:00+23ne2496100 0.0 1009128
05:00+23ne1292100 0.0 100933
08:00+25ne2286100 0.1 1011152
11:00+28n2373100 0.1 1011567
14:00+30nw437097 1.2 1008877
17:00+28wnw337468 0.3 1008701
20:00+25nne128281 0.4 100936
2 march, tue
tue223:00+24e2285100 0.0 101131
02:00+24ene238398 0.0 100940
05:00+24ene228474 0.1 100929
08:00+27ene227770 0.1 1010153
11:00+30nnw336263 0.3 1011966
14:00+31nw336068 0.3 1008963
17:00+29nw33690 0.0 1007551
20:00+25ne12770 0.0 101024
3 march, wed
wed323:00+25ene228059 0.0 101128
02:00+24ene127863 0.0 100926
05:00+24ene22765 0.0 100926
08:00+27ene11704 0.0 1011141
11:00+31nw22600 0.0 1011904
14:00+30wnw336442 2.4 1008855
17:00+28nw2277100 2.9 1008301
20:00+25e1286100 4.3 101127
4 march, thu
thu423:00+24ese128561 0.2 101125
02:00+24ene228581 0.3 101028
05:00+24ene128590 0.0 101026
08:00+27ne237759 0.0 1012208
11:00+31nnw336378 0.1 1011961
14:00+29w337281 4.6 1009612
17:00+27sw1182100 3.1 100868
20:00+25e128791 5.1 101025